Preview of NWS' New Version of Forecast
This preview is not operational and should not be used for support decisions.

Regional Weather Roundup (RWR)

Issued by National Weather Service (NWS)

                            
000
ASUS43 KMKX 211611
RWRWI 

WISCONSIN REGIONAL WEATHER ROUNDUP
NATIONAL WEATHER SERVICE MILWAUKEE/SULLIVAN WI
1100 AM CDT WED AUG 21 2019

NOTE: "FAIR" INDICATES FEW OR NO CLOUDS BELOW 12,000 FEET WITH NO
SIGNIFICANT WEATHER AND/OR OBSTRUCTIONS TO VISIBILITY.

WIZ001-002-006>008-014>016-023>028-211700-
NORTHWEST WISCONSIN
  
CITY           SKY/WX    TMP DP  RH WIND       PRES   REMARKS
SUPERIOR ARPT  FAIR      69  49  48 CALM      30.05S                  
ASHLAND        FAIR      70  51  51 W8        30.04R                  
HAYWARD        FAIR      68  50  52 VRB6      30.07R                  
SIREN          FAIR      67  49  51 N8        30.08S                  
CUMBERLAND     FAIR      66  52  59 NW8       30.08S                  
RICE LAKE      FAIR      69  53  57 W8        30.08S                  
CHETEK         FAIR      69  55  60 CALM      30.07R                  
LADYSMITH      FAIR      69  53  55 NW13      30.07S                  
EAU CLAIRE     FAIR      71  52  50 NW10      30.05R                  
MENOMONIE      FAIR      65  49  55 NW12      30.06F                  
NEW RICHMOND   FAIR      69  52  55 NW9       30.09S                  
OSCEOLA        FAIR      68  54  60 NW7       30.12R                  
$$
 
WIZ003>005-009-010-017-018-211700-
NORTH CENTRAL WISCONSIN
  
CITY           SKY/WX    TMP DP  RH WIND       PRES   REMARKS
MANITOWISH WTR PTSUNNY   65  49  56 NW13G18   30.03S                  
ARBOR VITAE    FAIR      69  52  54 NW13      30.02F                  
WOODRUFF       FAIR      69  52  54 NW13      30.02F                  
RHINELANDER    FAIR      68  54  60 W7G17     30.03S                  
EAGLE RIVER    PTSUNNY   67  48  50 NW9G18    30.01S                  
LAND O LAKES   FAIR      67  47  48 NW10      30.03S                  
PHILLIPS       FAIR      66  51  59 W9        30.04S                  
TOMAHAWK       PTSUNNY   66  53  62 NW9       30.03S                  
MEDFORD        FAIR      65  52  61 NW12G20   30.03S                  
MERRILL        FAIR      68  53  58 NW13G18   30.02S                  
$$
 
WIZ029-030-035-036-043>047-211700-
CENTRAL WISCONSIN
  
CITY           SKY/WX    TMP DP  RH WIND       PRES   REMARKS
WAUSAU         FAIR      71  53  52 NW10G21   29.99F                  
MOSINEE        MOSUNNY   70  57  64 NW13G20   30.01F                  
MARSHFIELD     FAIR      71  54  54 N10       30.01F                  
STEVENS POINT  FAIR      70  55  57 W9        30.01R                  
WAUPACA        PTSUNNY   76  60  57 NW8       29.98S                  
WAUTOMA        CLOUDY    74  63  68 N9        30.00R                  
WISC RAPIDS    FAIR      74  57  55 NW10G20   30.01S                  
CAMP DOUGLAS   PTSUNNY   73  64  73 NW10      30.02R                  
$$
 
WIZ011>013-019>022-031-037>040-048>050-211700-
NORTHEAST WISCONSIN
  
CITY           SKY/WX    TMP DP  RH WIND       PRES   REMARKS
ANTIGO         FAIR      68  55  63 NW13      30.01F                  
SHAWANO        FAIR      74  59  60 NW6       29.96F                  
OCONTO         PTSUNNY   72  57  60 N7        29.94F                  
STURGEON BAY   CLOUDY    69  63  81 N8        29.95S                  
GREEN BAY      PTSUNNY   74  62  66 NW6       29.96S                  
MANITOWOC      CLOUDY    74  66  76 N7        29.95R                  
APPLETON       PTSUNNY   72  66  83 N8        29.96S                  
CLINTONVILLE   PTSUNNY   73  57  57 NW8       29.97F                  
OSHKOSH        PTSUNNY   74  64  71 N10       29.97R                  
$$
 
WIZ032>034-041-042-053>061-211700-
SOUTHWEST WISCONSIN
  
CITY           SKY/WX    TMP DP  RH WIND       PRES   REMARKS
LA CROSSE      PTSUNNY   76  60  57 NW12      30.03R                  
SPARTA         FAIR      72  59  63 NW10      30.04R                  
VIROQUA        FAIR      71  65  80 N12       30.05R                  
BOSCOBEL       FAIR      77  67  71 W6        30.03R                  
PRAIRIE DU CHI FAIR      73  65  76 NW3       30.04R                  
PLATTEVILLE    CLOUDY    76  73  92 NW10      30.03R                  
$$

WIZ056-057-062-063-064-067-068-211700-
SOUTH CENTRAL WISCONSIN
  
CITY           SKY/WX    TMP DP  RH WIND       PRES   REMARKS
REEDSBURG      PTSUNNY   74  65  74 N10       30.01R                  
BARABOO/DELLS  PTSUNNY   71  63  76 NW6       30.01R                  
LONE ROCK      PTSUNNY   76  66  71 W7        30.02R                  
MINERAL POINT  CLOUDY    73  72  94 SE8       30.04R                  
MADISON        CLOUDY    75  67  76 NW12      29.98R                  
MIDDLETON      PTSUNNY   76   7   7 NW9       30.01R                  
WATERTOWN      PTSUNNY   78  70  76 W12G17    29.96S HX  81           
MONROE         PTSUNNY   78  68  72 NW3       30.00R                  
JANESVILLE     PTSUNNY   81  70  69 NW9       29.98R HX  84           
$$
 
WIZ051-052-058>065-066-070>072-211700-
SOUTHEAST WISCONSIN
  
CITY           SKY/WX    TMP DP  RH WIND       PRES   REMARKS
MILWAUKEE      PTSUNNY   83  68  60 VRB6      29.94S HX  86           
WAUKESHA       NOT AVBL                                               
MILWAUKEE/TIMM PTSUNNY   81  64  57 W6        29.96R HX  82           
RACINE         FAIR      80  69  69 W8        29.96S HX  83           
KENOSHA        FAIR      82  74  76 W5        29.96R HX  88           
FOND DU LAC    CLOUDY    74  66  76 NW8       29.98R                  
SHEBOYGAN      PTSUNNY   77  67  71 NW13      29.95R                  
WEST BEND      PTSUNNY   77  68  73 W8        29.96R                  
JUNEAU         CLOUDY    71  67  87 W5        29.99R                  
$$

LSZ147-162-211700-
LAKE SUPERIOR
  
STATION/POSITION TIME  TEMP    WIND        PRES    WAVE
                       AIR SEA DIR/SP/G            HT/PER
                 (UTC) (F)     (DEG/KT/KT) (MB)    (FT/S)
W MID LAKE BUOY  1550   62 63  290/ 12/ 16 1015.1R   2/ 3
DEVILS ISLAND    1500   62     300/ 12/ 14 1016.2R
SAXON HARBOR     1540   66     330/ 10/ 12 1016.3S
$$
 
LMZ867-665-643>646-211700-
LAKE MICHIGAN
  
STATION/POSITION TIME  TEMP    WIND        PRES    WAVE
                       AIR SEA DIR/SP/G            HT/PER
                 (UTC) (F)     (DEG/KT/KT) (MB)    (FT/S)
S GREEN BAY BUOY 1500   73 70  330/ 10/ 12 1014.5
N MID LAKE BUOY  1540   66 70  350/  6/  8 1013.9R
NORTHPORT PIER   1540   68     300/  3/  4 1013.9S
KEWAUNEE LAKESHO 1530   74      30/  1/  8 1013.3F
SHEBOYGAN LAKESH 1600   71      10/  9/ 11 1013.8R
PORT WASHINGTON  1530   81     260/  5/  9 1014.9R
ATWATER BUOY     1500   76 70   CALM  /  2 1014.4R   0
S MID LAKE BUOY  1550   73 74  290/  6/  6 1014.3R   1/ 3
KENOSHA   LAKESH 1600   79     260/  7/ 10 1013.9
$$

TC  - TEMPERATURE IN CELSIUS
VSB - VISIBILITY IN STATUTE MILES
WCI - WIND CHILL INDEX
HX  - HEAT INDEX